Overview Statistics Trail Chart Weather Telemetry Raw packets
 

This is the latest recevied weather packets stored in our database for station/object KK6MIG-13. If no packets are shown the sender has not sent any weather packets the latest 10 day(s).

<< 411 412 413 414 415 416 417 >>
Time Temp. Humidity Pressure Rain* Wind** Luminosity Snow
1788043040 16.67° C 32% 1013.6 hPa 0 mm - 744 W/m² -
1788042975 16.67° C 27% 1013.6 hPa 0 mm - 745 W/m² -
1788042915 16.67° C 29% 1013.6 hPa 0 mm - 745 W/m² -
1788042855 16.67° C 30% 1013.6 hPa 0 mm - 751 W/m² -
1788042794 16.67° C 27% 1013.6 hPa 0 mm - 761 W/m² -
1788042737 16.67° C 29% 1013.7 hPa 0 mm - 763 W/m² -
1788042733 16.67° C 26% 1013.6 hPa 0 mm - 763 W/m² -
1788042608 16.67° C 21% 1013.7 hPa 0 mm - 759 W/m² -
1788042548 16.67° C 19% 1013.7 hPa 0 mm - 772 W/m² -
1788042489 16.67° C 21% 1013.7 hPa 0 mm - 765 W/m² -
1788042427 16.67° C 22% 1013.7 hPa 0 mm - 775 W/m² -
1788042362 16.67° C 27% 1013.7 hPa 0 mm - 770 W/m² -
1788042303 16.67° C 29% 1013.7 hPa 0 mm - 780 W/m² -
1788042243 16.67° C 26% 1013.7 hPa 0 mm - 775 W/m² -
1788042182 16.67° C 29% 1013.7 hPa 0 mm - 784 W/m² -
1788042122 16.67° C 31% 1013.8 hPa 0 mm - 779 W/m² -
1788042056 16.67° C 30% 1013.8 hPa 0 mm - 784 W/m² -
1788041996 16.67° C 27% 1013.7 hPa 0 mm - 789 W/m² -
1788041944 16.67° C 31% 1013.7 hPa 0 mm - 803 W/m² -
1788041876 16.67° C 30% 1013.7 hPa 0 mm - 809 W/m² -
1788041819 16.67° C 31% 1013.8 hPa 0 mm - 814 W/m² -
1788041815 16.67° C 29% 1013.7 hPa 0 mm - 814 W/m² -
1788041690 16.67° C 25% 1013.8 hPa 0 mm - 798 W/m² -
1788041630 16.67° C 23% 1013.7 hPa 0 mm - 802 W/m² -
1788041570 16.67° C 20% 1013.8 hPa 0 mm - 802 W/m² -

* Rain latest hour (hover to see other rain measurements)
** Current wind speed in m/s (hover to see current wind gust speed)